Gorch Fock — DRAX — position and weather

sailwx.info

Track history (hours):
 
Tides and Currents Weather Stations Pressure Air Temp Water Temp Dewpoint Dewpoint Depression Visibility Wind Speed Wind Dir Waves Ship Positions

Gorch Fock (Germany)

Ship's website: http://www.marine.de/01DB070000000001/CurrentBaseLink/W2698K4S188INFODE

Last reported at 2014-Oct-25 11:14 UTC. Time now 2014-Oct-26 09:30 UTC.
Position N 36°31' W 008°47'.

Length 89 m; draft 5.4 m.

Type: Sailing vessel. MMSI: 211210280.

Date/timePositionNaut miles runAvg speedWind from/ knotsBaromVisibWave heightAir tempDewpointWater temp
2014-Oct-25 11:14N 36°31' W 008°47'5 7.1
2014-Oct-25 10:28N 36°30' W 008°54'32 6.6
2014-Oct-25 05:33N 36°39' W 009°33'6 4.9
2014-Oct-25 04:19N 36°44' W 009°38'2 2.9
2014-Oct-25 03:33N 36°46' W 009°39'3 3.1
2014-Oct-25 02:33N 36°49' W 009°40'6 3.1
2014-Oct-25 00:30N 36°55' W 009°42'10 3.2
2014-Oct-24 21:27N 37°04' W 009°46'1 1.4
2014-Oct-24 20:33N 37°05' W 009°47'2 1.5
2014-Oct-24 19:33N 37°07' W 009°48'2 2.2
2014-Oct-24 18:33N 37°08' W 009°49'2 1.7
2014-Oct-24 17:33N 37°10' W 009°50'2 2.4
2014-Oct-24 16:32N 37°12' W 009°52'3 2.9
2014-Oct-24 15:33N 37°14' W 009°54'3 3.1
2014-Oct-24 14:32N 37°17' W 009°56'3 2.7
2014-Oct-24 13:33N 37°17' W 009°53'4 3.9
2014-Oct-24 12:33N 37°17' W 009°48'4 3.5
2014-Oct-24 11:34N 37°21' W 009°49'5 4.4
2014-Oct-24 10:32N 37°25' W 009°50'6 5.6
2014-Oct-24 09:33N 37°30' W 009°52'6 6.4
2014-Oct-24 08:33N 37°37' W 009°54'5 5.3
2014-Oct-24 07:33N 37°42' W 009°55'5 5.4
2014-Oct-24 06:33N 37°47' W 009°57'4 4.4
2014-Oct-24 05:33N 37°51' W 009°58'4 4.0
2014-Oct-24 04:33N 37°55' W 009°59'5 5.0
2014-Oct-24 03:33N 38°00' W 010°01'5 5.1
2014-Oct-24 02:33N 38°05' W 010°03'5 4.8
2014-Oct-24 01:33N 38°10' W 010°04'4 4.4
2014-Oct-24 00:33N 38°14' W 010°05'5 5.0
2014-Oct-23 23:33N 38°19' W 010°07'7 6.0
2014-Oct-23 22:23N 38°26' W 010°08'5 6.3
2014-Oct-23 21:33N 38°31' W 010°11'12 5.4
2014-Oct-23 19:17N 38°43' W 010°14'31 4.0
2014-Oct-23 11:32N 39°13' W 010°23'4 4.0
2014-Oct-23 10:28N 39°17' W 010°24'4 4.5
2014-Oct-23 09:29N 39°21' W 010°25'4 4.1
2014-Oct-23 08:33N 39°25' W 010°25'3 3.3
2014-Oct-23 07:33N 39°29' W 010°25'6 3.0
2014-Oct-23 05:32N 39°33' W 010°20'4 3.7
2014-Oct-23 04:33N 39°36' W 010°18'5 4.9
2014-Oct-23 03:33N 39°41' W 010°20'5 4.6
2014-Oct-23 02:33N 39°46' W 010°21'6 4.9
2014-Oct-23 01:23N 39°51' W 010°22'4 4.5
2014-Oct-23 00:32N 39°55' W 010°23'  
2014-Oct-18 02:03N 45°41' W 003°27'4 4.0
2014-Oct-18 01:08N 45°40' W 003°22'4 5.9
2014-Oct-18 00:32N 45°41' W 003°17'7 6.6
2014-Oct-17 23:26N 45°42' W 003°07'7 7.3
2014-Oct-17 22:26N 45°43' W 002°57'7 6.8
2014-Oct-17 21:27N 45°44' W 002°47'7 7.7
2014-Oct-17 20:31N 45°47' W 002°38'8 7.8
2014-Oct-17 19:33N 45°49' W 002°27'8 8.1
2014-Oct-17 18:32N 45°50' W 002°15'7 7.7
2014-Oct-17 17:33N 45°53' W 002°06'6 6.4
2014-Oct-17 16:33N 45°56' W 001°58'6 6.1
2014-Oct-17 15:33N 45°59' W 001°50'8 8.2
2014-Oct-17 14:33N 46°02' W 001°39'6 6.3
2014-Oct-17 13:33N 46°05' W 001°31'5 5.2
2014-Oct-17 12:32N 46°06' W 001°24'  
Track history (hours):
 
Tides and Currents Weather Stations Pressure Air Temp Water Temp Dewpoint Dewpoint Depression Visibility Wind Speed Wind Dir Waves Ship Positions

Gorch Fock (Germany)

Ship's website: http://www.marine.de/01DB070000000001/CurrentBaseLink/W2698K4S188INFODE

Last reported at 2014-Oct-25 11:14 UTC. Time now 2014-Oct-26 09:30 UTC.
Position N 36°31' W 008°47'.

Length 89 m; draft 5.4 m.

Type: Sailing vessel. MMSI: 211210280.

Date/timePositionNaut miles runAvg speedWind from/ knotsBaromVisibWave heightAir tempDewpointWater temp
2014-Oct-25 11:14N 36°31' W 008°47'5 7.1
2014-Oct-25 10:28N 36°30' W 008°54'32 6.6
2014-Oct-25 05:33N 36°39' W 009°33'6 4.9
2014-Oct-25 04:19N 36°44' W 009°38'2 2.9
2014-Oct-25 03:33N 36°46' W 009°39'3 3.1
2014-Oct-25 02:33N 36°49' W 009°40'6 3.1
2014-Oct-25 00:30N 36°55' W 009°42'10 3.2
2014-Oct-24 21:27N 37°04' W 009°46'1 1.4
2014-Oct-24 20:33N 37°05' W 009°47'2 1.5
2014-Oct-24 19:33N 37°07' W 009°48'2 2.2
2014-Oct-24 18:33N 37°08' W 009°49'2 1.7
2014-Oct-24 17:33N 37°10' W 009°50'2 2.4
2014-Oct-24 16:32N 37°12' W 009°52'3 2.9
2014-Oct-24 15:33N 37°14' W 009°54'3 3.1
2014-Oct-24 14:32N 37°17' W 009°56'3 2.7
2014-Oct-24 13:33N 37°17' W 009°53'4 3.9
2014-Oct-24 12:33N 37°17' W 009°48'4 3.5
2014-Oct-24 11:34N 37°21' W 009°49'5 4.4
2014-Oct-24 10:32N 37°25' W 009°50'6 5.6
2014-Oct-24 09:33N 37°30' W 009°52'6 6.4
2014-Oct-24 08:33N 37°37' W 009°54'5 5.3
2014-Oct-24 07:33N 37°42' W 009°55'5 5.4
2014-Oct-24 06:33N 37°47' W 009°57'4 4.4
2014-Oct-24 05:33N 37°51' W 009°58'4 4.0
2014-Oct-24 04:33N 37°55' W 009°59'5 5.0
2014-Oct-24 03:33N 38°00' W 010°01'5 5.1
2014-Oct-24 02:33N 38°05' W 010°03'5 4.8
2014-Oct-24 01:33N 38°10' W 010°04'4 4.4
2014-Oct-24 00:33N 38°14' W 010°05'5 5.0
2014-Oct-23 23:33N 38°19' W 010°07'7 6.0
2014-Oct-23 22:23N 38°26' W 010°08'5 6.3
2014-Oct-23 21:33N 38°31' W 010°11'12 5.4
2014-Oct-23 19:17N 38°43' W 010°14'31 4.0
2014-Oct-23 11:32N 39°13' W 010°23'4 4.0
2014-Oct-23 10:28N 39°17' W 010°24'4 4.5
2014-Oct-23 09:29N 39°21' W 010°25'4 4.1
2014-Oct-23 08:33N 39°25' W 010°25'3 3.3
2014-Oct-23 07:33N 39°29' W 010°25'6 3.0
2014-Oct-23 05:32N 39°33' W 010°20'4 3.7
2014-Oct-23 04:33N 39°36' W 010°18'5 4.9
2014-Oct-23 03:33N 39°41' W 010°20'5 4.6
2014-Oct-23 02:33N 39°46' W 010°21'6 4.9
2014-Oct-23 01:23N 39°51' W 010°22'4 4.5
2014-Oct-23 00:32N 39°55' W 010°23'  
2014-Oct-18 02:03N 45°41' W 003°27'4 4.0
2014-Oct-18 01:08N 45°40' W 003°22'4 5.9
2014-Oct-18 00:32N 45°41' W 003°17'7 6.6
2014-Oct-17 23:26N 45°42' W 003°07'7 7.3
2014-Oct-17 22:26N 45°43' W 002°57'7 6.8
2014-Oct-17 21:27N 45°44' W 002°47'7 7.7
2014-Oct-17 20:31N 45°47' W 002°38'8 7.8
2014-Oct-17 19:33N 45°49' W 002°27'8 8.1
2014-Oct-17 18:32N 45°50' W 002°15'7 7.7
2014-Oct-17 17:33N 45°53' W 002°06'6 6.4
2014-Oct-17 16:33N 45°56' W 001°58'6 6.1
2014-Oct-17 15:33N 45°59' W 001°50'8 8.2
2014-Oct-17 14:33N 46°02' W 001°39'6 6.3
2014-Oct-17 13:33N 46°05' W 001°31'5 5.2
2014-Oct-17 12:32N 46°06' W 001°24'  

Dump ship's entire track history